GW5771 Weather Reports


time (UTC)temp
F
wind
direction
speed
knots
gust
knots
rain 1hr
in
rain 24hr
in
rain mn
in
humidity
%
barometer
mb
20260504223106 68 234 2.6 6.1 0.00 0.00 0.00 39 1007.9
20260504222607 69 213 2.6 7.0 0.00 0.00 0.00 39 1007.8
20260504221607 70 218 3.5 10.4 0.00 0.00 0.00 38 1008.0
20260504221105 70 249 0.9 6.1 0.00 0.00 0.00 36 1007.9
20260504220107 71 205 2.6 8.7 0.00 0.00 0.00 34 1007.7
20260504215606 71 205 4.3 7.8 0.00 0.00 0.00 34 1007.6
20260504215105 72 240 4.3 7.8 0.00 0.00 0.00 34 1007.7
20260504214605 72 227 3.5 12.2 0.00 0.00 0.00 34 1007.6
20260504214105 72 272 0.9 7.0 0.00 0.00 0.00 33 1007.5
20260504213606 72 178 2.6 7.0 0.00 0.00 0.00 33 1007.5
20260504213105 72 282 3.5 10.4 0.00 0.00 0.00 33 1007.5
20260504211106 72 252 3.5 8.7 0.00 0.00 0.00 33 1007.7
20260504210605 73 299 2.6 10.4 0.00 0.00 0.00 33 1007.6
20260504210105 73 296 2.6 7.0 0.00 0.00 0.00 33 1007.4
20260504205605 72 310 0.9 7.8 0.00 0.00 0.00 33 1007.3
20260504205107 72 290 3.5 8.7 0.00 0.00 0.00 33 1007.4
20260504204605 72 221 2.6 7.8 0.00 0.00 0.00 33 1007.4
20260504204106 72 218 2.6 6.1 0.00 0.00 0.00 34 1007.4
20260504203606 71 215 2.6 7.8 0.00 0.00 0.00 34 1007.4
20260504203106 71 232 3.5 7.8 0.00 0.00 0.00 33 1007.5
20260504202606 70 309 4.3 10.4 0.00 0.00 0.00 34 1007.3
20260504202106 70 208 4.3 8.7 0.00 0.00 0.00 34 1007.5
20260504201607 71 191 2.6 13.9 0.00 0.00 0.00 34 1007.6
20260504200605 72 245 2.6 7.8 0.00 0.00 0.00 33 1007.6
20260504200105 72 202 2.6 7.0 0.00 0.00 0.00 34 1007.3
20260504194605 69 188 4.3 7.8 0.00 0.00 0.00 34 1007.9
20260504194105 69 232 3.5 7.8 0.00 0.00 0.00 35 1007.5
20260504193605 69 269 2.6 7.8 0.00 0.00 0.00 35 1008.2
20260504192104 70 216 3.5 7.8 0.00 0.00 0.00 34 1008.2
20260504191604 70 240 2.6 7.0 0.00 0.00 0.00 33 1007.9
20260504190605 70 262 5.2 10.4 0.00 0.00 0.00 33 1007.8
20260504185605 70 220 3.5 12.2 0.00 0.00 0.00 34 1007.7
20260504185105 70 223 2.6 10.4 0.00 0.00 0.00 33 1007.7
20260504184105 69 148 2.6 14.8 0.00 0.00 0.00 33 1008.0
20260504183606 70 266 4.3 10.4 0.00 0.00 0.00 32 1008.2
20260504183105 70 212 2.6 10.4 0.00 0.00 0.00 33 1008.0
20260504182106 70 194 4.3 8.7 0.00 0.00 0.00 31 1008.2
20260504181605 70 241 2.6 7.0 0.00 0.00 0.00 32 1007.9
20260504181104 69 208 3.5 8.7 0.00 0.00 0.00 31 1008.1
20260504175606 69 330 2.6 8.7 0.00 0.00 0.00 33 1008.1
20260504175105 69 279 4.3 11.3 0.00 0.00 0.00 32 1008.2
20260504174613 69 170 2.6 8.7 0.00 0.00 0.00 32 1008.2
20260504174105 68 170 2.6 7.8 0.00 0.00 0.00 34 1008.2
20260504173605 68 264 4.3 11.3 0.00 0.00 0.00 34 1008.5
20260504173105 68 258 4.3 10.4 0.00 0.00 0.00 34 1008.4
20260504172605 68 200 4.3 13.9 0.00 0.00 0.00 35 1008.4
20260504171605 69 301 3.5 7.8 0.00 0.00 0.00 35 1008.5
20260504171105 68 208 3.5 12.2 0.00 0.00 0.00 34 1008.4
20260504170605 69 287 3.5 7.0 0.00 0.00 0.00 34 1008.4
20260504170105 68 292 3.5 7.8 0.00 0.00 0.00 33 1008.3
20260504150606 62 330 2.6 8.7 0.00 0.00 0.00 41 1009.7
20260504150106 62 222 3.5 11.3 0.00 0.00 0.00 40 1009.6
20260504141106 60 314 3.5 7.8 0.00 0.00 0.00 41 1009.6
20260504140607 60 219 3.5 7.8 0.00 0.00 0.00 42 1009.4
20260504140106 60 205 2.6 7.0 0.00 0.00 0.00 42 1009.6
20260504130605 56 181 1.7 7.8 0.00 0.00 0.00 47 1010.3
20260504130106 56 262 2.6 7.0 0.00 0.00 0.00 47 1010.3
20260504110606 39 22 0.0 1.7 0.00 0.00 0.00 84 1010.9
20260504110105 38 42 0.9 1.7 0.00 0.00 0.00 87 1011.0
20260504100606 36 38 0.0 0.0 0.00 0.00 0.00 90 1011.8
20260504100106 36 32 0.0 0.9 0.00 0.00 0.00 91 1011.7
20260504081605 39 84 0.0 0.0 0.00 0.00 0.00 86 1011.4
20260504081105 40 84 0.0 0.0 0.00 0.00 0.00 86 1011.3
20260504080105 40 358 0.0 0.0 0.00 0.00 0.00 86 1010.9
20260504060106 38 226 0.0 0.9 0.00 0.00 0.00 82 1011.0
20260504050605 38 30 0.0 0.0 0.00 0.00 0.00 87 1011.1
20260504050105 38 30 0.0 0.0 0.00 0.00 0.00 87 1011.1
20260504045605 38 30 0.0 0.0 0.00 0.00 0.00 87 1011.0
20260504045105 37 30 0.0 0.0 0.00 0.00 0.00 87 1011.1
20260504044605 37 9 0.0 0.0 0.00 0.00 0.00 87 1011.0
20260504044105 37 50 0.0 0.9 0.00 0.00 0.00 87 1011.0
20260504043105 37 115 0.0 0.9 0.00 0.00 0.00 87 1011.1
20260504042605 36 29 0.0 0.9 0.00 0.00 0.00 87 1011.2
20260504040606 35 3 0.0 0.9 0.00 0.00 0.00 86 1011.4
20260504040106 35 16 0.0 0.9 0.00 0.00 0.00 87 1011.4
20260504035604 35 138 0.0 0.9 0.00 0.00 0.00 88 1011.3
20260504035105 35 22 0.0 0.9 0.00 0.00 0.00 88 1011.5
20260504034605 35 132 0.0 0.9 0.00 0.00 0.00 88 1011.5
20260504034105 35 76 0.0 1.7 0.00 0.00 0.00 87 1011.6
20260504032604 35 303 0.0 0.9 0.00 0.00 0.00 85 1011.5
20260504032106 35 38 0.0 0.9 0.00 0.00 0.00 84 1011.5
20260504031605 35 307 0.9 2.6 0.00 0.00 0.00 84 1011.5
20260504031105 35 109 0.0 1.7 0.00 0.00 0.00 83 1011.5
20260504030605 35 30 0.0 1.7 0.00 0.00 0.00 83 1011.5
20260504030105 35 45 0.0 0.9 0.00 0.00 0.00 83 1011.5
20260504025605 35 73 0.0 0.0 0.00 0.00 0.00 82 1011.5
20260504025106 36 73 0.0 0.0 0.00 0.00 0.00 80 1011.5
20260504024605 36 73 0.0 0.0 0.00 0.00 0.00 80 1011.4
20260504024104 36 73 0.0 0.9 0.00 0.00 0.00 80 1011.4
20260504023606 36 42 0.0 0.9 0.00 0.00 0.00 81 1011.4
20260504023105 36 257 0.0 0.9 0.00 0.00 0.00 80 1011.4
20260504022606 36 63 0.0 0.0 0.00 0.00 0.00 80 1011.5
20260504022105 36 63 0.0 0.9 0.00 0.00 0.00 79 1011.4
20260504021606 37 59 0.0 0.9 0.00 0.00 0.00 78 1011.4
20260504021105 37 73 0.0 0.9 0.00 0.00 0.00 77 1011.4
20260504020605 37 48 0.0 0.0 0.00 0.00 0.00 76 1011.4
20260504020106 37 48 0.0 0.0 0.00 0.00 0.00 78 1011.4
20260504015606 37 50 0.0 0.9 0.00 0.00 0.00 77 1011.4
20260504015105 38 90 0.0 0.0 0.00 0.00 0.00 76 1011.3
20260504014604 38 71 0.0 0.9 0.00 0.00 0.00 76 1011.2
20260504014104 38 26 0.0 0.9 0.00 0.00 0.00 74 1011.3
20260504013605 38 27 0.0 0.9 0.00 0.00 0.00 74 1011.2
20260504013105 39 45 0.0 0.9 0.00 0.00 0.00 74 1011.1
20260504012605 39 351 0.0 0.9 0.00 0.00 0.00 73 1011.1
20260504011605 40 226 0.0 0.9 0.00 0.00 0.00 72 1011.1
20260504011106 40 207 0.0 0.0 0.00 0.00 0.00 71 1011.1
20260504010605 40 4 0.0 0.0 0.00 0.00 0.00 70 1011.0
20260504010105 41 4 0.0 0.0 0.00 0.00 0.00 68 1010.9
20260504005605 41 4 0.0 0.9 0.00 0.00 0.00 66 1010.8
20260504005105 42 34 0.0 0.9 0.00 0.00 0.00 65 1010.8
20260504004605 42 81 0.0 0.0 0.00 0.00 0.00 63 1010.6
20260504004105 43 339 0.0 0.9 0.00 0.00 0.00 61 1010.6
20260504003605 44 27 0.0 0.0 0.00 0.00 0.00 61 1010.5
20260504003106 44 27 0.0 0.9 0.00 0.00 0.00 60 1010.5
20260504002605 45 26 0.0 0.9 0.00 0.00 0.00 58 1010.5
20260504002105 46 21 0.0 0.9 0.00 0.00 0.00 55 1010.4
20260504001604 46 269 0.0 0.0 0.00 0.00 0.00 53 1010.2
20260504001104 47 269 0.0 0.0 0.00 0.00 0.00 52 1010.1
20260504000605 48 69 0.0 0.0 0.00 0.00 0.00 51 1010.1
20260503235605 49 64 0.0 1.7 0.00 0.00 0.00 47 1009.8
20260503235104 49 335 0.9 5.2 0.00 0.00 0.00 44 1009.7
20260503234105 50 302 0.9 2.6 0.00 0.00 0.00 43 1009.6
20260503233605 50 329 0.0 4.3 0.00 0.00 0.00 43 1009.5
20260503232605 50 355 1.7 6.1 0.00 0.00 0.00 41 1009.3
20260503232104 51 320 2.6 1.7 0.00 0.00 0.00 41 1009.2
20260503231604 51 337 4.3 7.8 0.00 0.00 0.00 41 1009.2
20260503231105 51 344 2.6 6.1 0.00 0.00 0.00 40 1009.1
20260503230604 52 353 1.7 7.0 0.00 0.00 0.00 40 1008.9
20260503230106 52 343 1.7 6.1 0.00 0.00 0.00 39 1008.7
20260503225605 52 342 1.7 5.2 0.00 0.00 0.00 39 1008.7
20260503225104 52 303 0.9 4.3 0.00 0.00 0.00 40 1008.6
20260503224605 51 344 1.7 6.1 0.00 0.00 0.00 40 1008.7